Lid_Strength_Index
2 5 6 7 11 12 14 12 10 11 11 9 7 8 9 9 10 13 3 2 1 0 -0 -1 -1 -1 -1 -1 -1 -1 -2 -2 -2 -2 -2 -2 -2 -2 -1 -1 -0 -0 0 0 0 1 1 2 2
5 4 6 9 12 15 14 12 10 10 8 6 8 8 8 10 7 4 3 2 2 1 -0 -1 -1 -1 -1 -1 -1 -1 -2 -1 -1 -1 -1 -1 -1 -0 0 1 1 1 1 1 1 2 2 2 3
6 6 9 11 14 15 13 12 11 10 9 9 9 8 8 8 5 5 3 2 2 1 0 -0 -1 -1 -1 -1 -1 -2 -1 -1 -1 -0 0 0 1 1 1 1 2 2 2 2 2 2 3 3 3
8 8 10 13 15 13 13 11 11 11 10 9 8 9 7 4 5 4 2 2 2 2 1 0 -1 -0 -1 -1 -1 -1 -1 -1 -0 1 1 1 2 2 2 2 2 3 3 3 3 3 4 4 4
9 11 14 15 14 13 12 12 11 11 11 10 10 10 8 3 2 2 2 2 3 3 2 1 0 0 0 -0 -0 -0 -0 0 1 1 2 2 2 3 3 3 3 3 3 3 4 4 4 4 4
11 12 16 16 16 14 13 13 12 12 11 11 10 10 9 4 3 1 2 3 3 4 3 3 2 1 1 1 1 1 1 1 2 2 3 4 4 4 4 4 4 4 4 4 4 4 4 5 4
13 14 16 17 16 15 14 13 13 13 12 12 9 11 9 5 3 1 2 3 4 5 5 5 5 5 3 2 1 2 2 3 3 4 5 6 6 6 5 5 4 4 4 4 4 4 5 5 5
11 13 16 17 17 15 14 13 13 12 12 11 11 11 10 6 3 1 2 4 4 4 5 6 6 6 6 5 4 4 3 4 5 5 6 7 7 7 7 7 6 5 5 4 4 5 5 5 5
11 15 17 17 16 16 13 14 13 13 12 11 8 10 7 4 3 4 5 5 5 5 5 5 6 7 7 7 6 5 5 5 5 7 8 10 11 11 11 7 6 6 6 6 5 5 5 6 7
12 15 15 14 15 15 13 14 14 13 13 12 8 6 5 4 4 5 6 6 6 6 6 5 5 6 7 7 7 7 8 7 8 9 9 10 11 10 10 9 7 7 7 6 6 5 6 9 11
13 14 13 13 13 13 13 13 13 13 13 12 9 6 6 5 5 5 6 5 5 5 6 6 6 6 8 8 7 8 8 8 8 8 8 9 11 12 12 12 12 12 9 11 11 11 11 11 11
14 12 12 12 12 13 13 13 14 14 12 11 9 4 5 6 6 6 6 6 6 6 6 6 8 9 9 8 9 9 9 9 8 9 9 11 11 11 12 12 12 12 11 12 12 12 11 12 11
13 13 12 12 12 13 12 14 14 14 13 7 5 5 5 5 5 5 5 6 7 7 7 7 8 9 8 9 10 10 10 10 10 10 9 10 11 11 11 11 11 12 12 12 12 12 12 12 12
12 12 13 12 12 12 13 14 13 14 12 7 6 6 6 5 5 6 5 6 7 7 8 8 8 8 8 9 9 10 10 10 10 10 10 10 11 11 11 12 12 12 12 12 12 12 13 12 12
12 14 13 13 12 13 13 14 15 14 12 9 7 6 6 6 5 5 5 5 6 8 8 8 9 8 9 9 9 9 10 9 10 10 10 10 11 12 12 12 12 12 12 12 12 12 12 12 12
14 15 17 13 12 12 13 16 14 14 14 14 13 13 11 11 11 11 10 5 5 7 8 8 7 8 9 9 10 10 10 10 10 10 11 10 10 11 12 12 12 12 12 12 12 12 12 12 13
14 18 17 15 13 14 14 16 13 13 13 14 14 13 12 11 11 10 10 10 6 7 8 8 8 8 8 9 9 9 9 10 10 10 10 10 10 10 11 11 12 11 12 12 12 12 13 13 12
16 17 15 16 14 15 16 15 15 14 14 15 15 14 13 12 11 10 9 9 9 8 9 9 9 9 9 10 10 10 10 10 10 10 10 10 10 10 11 11 12 12 12 13 13 13 12 13 13
15 15 16 15 14 16 17 16 16 16 16 16 15 14 13 13 11 10 9 9 9 9 9 9 9 9 10 11 11 11 11 11 11 11 10 10 10 10 11 12 12 12 13 13 13 13 13 14 13
15 16 17 15 15 17 17 17 16 15 15 15 14 15 14 13 12 10 10 10 10 9 9 9 9 9 9 10 10 10 11 11 10 10 10 9 10 10 10 11 12 13 13 13 13 13 13 14 13
17 17 18 17 17 17 18 18 17 16 15 14 14 13 13 12 12 11 10 10 10 9 9 8 8 8 9 9 9 10 10 11 11 11 10 10 9 10 10 11 12 12 13 13 13 13 13 14 13
16 16 16 17 19 21 18 22 18 16 15 14 14 14 14 14 12 11 11 11 10 10 8 8 7 7 7 8 9 10 10 11 10 10 10 10 9 9 9 10 10 11 11 12 12 11 11 12 13
15 15 15 16 21 21 21 26 20 17 17 16 15 14 14 14 13 12 12 11 11 11 10 9 8 8 7 8 8 9 9 9 9 9 9 9 9 8 8 9 9 10 10 11 11 11 11 11 12
14 16 17 18 23 27 26 25 21 18 17 16 15 14 14 13 13 13 12 11 11 11 11 10 10 10 9 9 9 9 9 9 10 10 10 10 9 9 9 8 9 9 10 10 10 10 11 11 11
16 21 26 26 26 25 29 24 19 16 15 15 15 14 14 13 13 13 13 12 12 12 12 10 10 11 10 10 10 10 10 10 10 10 11 10 10 10 9 9 9 9 9 10 10 10 11 11 11
18 22 25 31 28 25 30 25 18 17 15 15 14 14 13 13 13 13 13 13 13 13 13 12 12 12 11 11 11 11 11 11 11 11 11 11 11 10 10 9 9 9 9 9 10 10 11 11 11
19 24 19 28 35 30 25 22 18 16 17 16 14 14 14 13 13 13 13 13 13 14 14 13 13 13 12 12 12 12 12 12 12 12 12 12 11 10 10 10 10 10 10 10 10 11 11 11 11
18 17 23 25 28 31 27 30 21 21 20 18 16 16 15 13 13 13 13 13 13 14 14 14 13 13 13 13 13 12 13 13 13 13 13 13 12 11 11 11 11 11 11 10 10 11 11 11 11
21 22 22 22 22 27 30 23 20 20 22 18 17 15 16 15 14 13 13 13 12 13 13 13 13 13 13 13 13 13 13 13 13 13 13 13 12 12 12 12 12 11 11 11 11 11 11 11 11
18 20 18 23 26 25 24 22 21 24 24 25 20 16 18 19 16 16 14 13 13 13 14 14 13 13 13 13 13 13 13 13 13 13 13 13 13 12 12 12 12 12 12 12 12 12 11 11 11